Temperature
18 18 18 18 18 18 18 18 19 19 19 19 19 18 18 18 18 18 18 18 18 18 18 18 18 18 18 18 18 18 18 18 18 18 17 18 18 18 18 18 18 18 17
18 18 18 18 18 18 18 18 18 18 18 18 19 19 18 18 18 18 18 18 18 18 18 18 18 18 18 18 18 18 17 17 17 17 17 17 17 17 17 18 18 17 17
18 18 18 18 18 18 18 18 18 18 18 18 19 19 19 18 18 18 18 18 18 18 18 18 18 18 18 18 18 17 17 17 17 17 17 17 17 17 17 17 17 17 17
17 17 18 18 18 18 18 18 18 18 18 18 19 19 19 19 19 18 18 19 18 18 18 18 18 18 18 18 18 18 17 17 17 17 17 17 17 17 17 17 17 17 17
17 17 17 18 18 18 18 18 18 18 18 18 18 19 19 19 19 19 19 19 19 18 18 18 18 18 18 18 18 17 17 17 17 17 17 17 17 17 17 17 17 17 17
16 17 17 17 17 17 17 18 18 18 18 18 18 19 19 19 19 19 19 19 19 18 18 18 18 18 18 18 17 17 17 17 17 17 17 17 17 17 17 17 17 17 16
16 16 17 17 17 17 17 17 17 18 18 18 18 18 19 19 19 19 19 19 19 18 18 18 18 18 18 18 18 17 17 17 17 17 17 17 17 17 17 17 16 16 16
16 16 16 16 17 17 17 17 17 17 17 17 17 17 18 18 18 18 19 19 19 18 18 18 18 18 18 18 18 18 17 17 17 17 17 17 17 17 16 16 16 16 16
15 16 16 16 16 16 17 17 17 17 17 17 17 17 17 18 18 18 18 18 18 18 18 18 18 18 18 18 18 18 18 17 17 17 17 17 16 16 16 16 16 16 16
15 15 16 16 16 16 16 17 17 17 17 17 17 17 17 17 17 18 18 18 18 18 18 18 18 18 18 18 18 18 18 18 17 17 17 17 16 16 16 16 16 16 16
15 15 15 16 16 16 16 16 16 17 17 17 17 17 16 17 17 17 18 18 18 18 18 18 18 18 18 17 17 17 17 17 17 17 17 17 17 16 16 16 16 16 16
14 15 15 15 15 16 16 16 16 16 16 16 17 17 17 17 17 17 17 17 17 17 17 17 17 17 18 17 17 17 17 17 17 17 17 17 17 16 16 16 16 16 16
14 14 14 15 15 15 16 16 16 16 16 16 16 16 16 17 17 16 16 16 17 17 17 17 17 17 17 17 17 17 17 17 17 17 17 17 16 16 16 16 16 16 16
13 14 14 14 14 15 15 15 16 16 16 16 16 16 16 16 16 16 16 16 16 16 16 17 17 17 17 17 17 17 17 16 16 16 16 16 16 16 16 16 16 15 15
13 13 14 14 14 14 14 15 15 15 15 15 15 15 15 16 16 16 15 15 15 15 16 16 17 17 16 16 17 16 16 16 16 16 16 16 16 16 16 15 15 15 15
13 13 13 13 13 14 14 14 14 14 15 15 15 15 15 15 15 15 15 15 15 15 15 16 16 16 16 16 16 16 16 16 16 16 15 15 15 15 15 15 15 15 14
12 13 13 13 13 13 13 13 14 14 14 14 14 14 15 15 15 15 15 15 15 15 15 15 15 16 16 16 16 16 15 15 15 15 15 15 15 15 15 15 14 14 14
12 12 12 13 13 13 13 13 13 13 13 14 14 14 14 14 15 15 15 15 15 15 15 15 15 15 15 15 15 15 15 15 15 14 14 14 14 14 14 14 14 14 14
12 12 12 12 12 13 13 13 13 13 13 13 13 13 14 14 14 14 14 14 15 14 14 15 15 15 15 15 14 14 14 14 14 14 14 14 14 14 14 14 14 14 13
11 12 12 12 12 12 12 12 12 13 13 13 13 13 13 13 13 14 14 14 14 14 14 14 14 14 14 14 14 14 14 13 13 13 13 13 13 13 13 13 13 13 13
11 11 11 11 12 12 12 12 12 12 12 12 12 12 12 13 13 13 13 13 14 14 14 14 14 14 13 13 13 13 13 13 13 13 13 13 13 13 13 13 13 13 13
10 10 10 11 11 11 11 11 12 12 12 12 12 12 12 12 12 13 13 13 13 13 13 13 13 13 13 13 13 13 13 13 12 12 12 12 12 12 12 12 12 12 12
10 10 10 10 10 11 11 11 11 11 12 12 12 12 12 12 12 12 12 12 13 13 13 13 13 13 13 13 13 13 13 13 13 12 12 12 11 11 11 11 11 11 11
9 9 9 9 10 10 10 10 11 11 11 11 11 11 11 12 12 12 12 12 12 12 13 13 13 13 13 13 13 13 13 12 12 12 12 11 11 11 10 10 10 10 10
9 9 9 9 9 9 10 10 10 10 11 11 11 11 11 12 12 12 12 12 12 12 12 13 13 13 13 13 13 13 12 12 12 11 11 11 10 10 10 10 10 10 10
9 9 9 9 9 9 9 9 10 10 10 11 11 11 11 11 11 12 12 12 12 12 12 12 13 13 13 13 13 13 13 12 12 11 11 11 11 10 9 9 9 9 9
Wind_Speed
6 6 6 8 9 10 8 7 7 7 7 9 10 10 8 10 10 12 14 17 16 14 12 11 10 9 8 8 8 8 8 8 8 8 10 11 10 10 10 9 8 7 7
6 5 5 5 7 10 10 8 7 6 6 6 8 9 10 10 11 14 14 16 17 15 14 13 12 11 10 9 8 8 8 9 8 8 9 10 10 9 9 8 7 6 5
7 5 6 6 7 11 11 8 7 5 6 7 9 10 8 10 12 14 15 14 15 15 15 14 13 12 12 10 9 9 9 9 9 9 9 10 10 9 9 8 7 6 5
8 6 6 6 7 8 7 7 6 5 6 6 6 7 7 8 11 13 14 14 14 13 15 16 15 14 13 12 11 10 10 10 10 10 10 10 10 9 9 8 7 6 5
9 6 5 6 7 5 6 7 6 5 4 4 5 5 5 7 10 11 10 13 14 14 15 16 16 16 15 14 13 12 11 11 11 11 10 10 10 10 9 8 7 6 5
9 6 5 6 6 5 5 5 5 5 4 4 5 3 3 5 7 10 11 11 13 14 15 14 15 15 16 15 14 14 13 12 12 12 11 11 10 10 9 8 7 6 6
8 6 5 5 6 6 7 7 5 5 4 3 1 1 1 1 4 6 8 8 9 13 14 14 14 13 14 16 16 15 15 14 14 13 12 12 11 10 9 8 7 6 5
7 6 6 6 6 6 7 7 6 5 4 4 3 2 1 2 2 3 4 7 9 9 10 13 13 14 14 14 16 17 16 16 15 14 13 12 12 11 9 8 7 6 5
6 5 6 6 7 7 7 8 8 8 6 5 4 4 4 5 3 2 3 4 6 6 7 8 11 13 15 14 15 17 17 17 16 15 14 13 12 11 10 9 8 6 5
5 5 5 6 7 7 8 9 9 7 7 6 5 4 3 3 4 3 2 2 4 6 7 7 7 10 14 14 15 17 18 18 17 15 15 14 13 12 11 9 8 7 6
5 5 5 6 6 7 8 9 8 8 7 7 6 5 4 2 2 3 3 2 2 3 5 6 5 7 12 14 15 17 19 19 18 17 15 14 13 12 11 10 9 8 7
5 5 4 4 5 5 7 8 9 10 9 9 7 6 6 5 4 4 3 3 3 3 3 4 5 5 10 14 16 17 20 20 19 18 16 15 14 13 12 11 9 9 8
4 6 5 3 3 3 4 5 7 8 9 9 9 7 7 6 4 5 4 3 3 2 2 3 4 5 9 13 15 19 20 21 20 18 17 16 15 13 12 11 10 9 9
4 6 6 5 5 3 2 2 4 5 6 8 9 8 7 7 6 6 5 5 4 3 3 4 3 4 7 11 15 20 18 21 20 19 18 17 15 14 12 10 9 9 8
6 7 7 7 7 6 4 2 0 2 3 4 5 6 6 6 6 6 6 6 6 6 6 5 4 4 6 9 14 16 15 19 19 18 17 16 15 14 12 10 9 8 7
8 9 9 9 9 8 7 4 2 1 1 1 3 4 5 4 6 6 7 6 6 6 5 5 4 3 4 7 11 14 14 18 18 17 16 16 15 14 12 10 9 8 7
8 9 9 9 9 9 8 7 5 3 2 2 1 2 4 4 5 6 6 6 6 5 5 3 2 2 4 6 7 9 11 12 12 14 14 14 13 12 11 10 9 8 7
8 8 8 8 9 9 9 8 6 5 3 2 2 1 1 2 5 5 5 6 6 6 5 5 3 3 3 6 7 7 7 9 9 12 13 12 12 11 10 10 9 9 8
7 8 8 8 8 8 8 8 6 5 4 2 1 1 1 1 2 3 4 5 5 6 4 5 4 3 3 4 6 6 6 5 7 8 9 9 10 10 10 10 10 10 9
7 7 7 7 7 7 8 8 7 5 4 3 2 1 1 1 1 2 3 4 5 6 5 6 5 4 3 5 6 7 6 5 6 8 11 13 14 13 12 11 12 12 12
6 6 6 7 7 7 8 8 6 5 4 3 2 2 1 2 2 2 3 4 5 5 5 6 6 4 5 6 7 5 8 8 6 5 8 8 11 11 11 12 13 14 15
5 5 6 6 7 7 13 13 8 4 4 3 2 2 2 3 3 3 5 5 5 5 6 5 4 6 6 6 6 9 10 9 5 4 6 6 6 7 8 10 14 15 16
5 5 6 6 7 9 14 14 11 5 4 3 2 1 2 3 4 4 4 5 3 4 6 6 6 6 7 8 10 10 10 7 5 7 7 6 5 7 8 12 15 15 16
4 4 5 6 6 9 14 14 11 6 5 5 4 2 3 3 3 4 5 5 4 3 2 4 5 6 6 8 10 9 11 10 9 5 4 4 3 4 6 10 13 13 14
4 4 3 4 6 8 13 13 10 5 4 5 5 4 3 3 4 5 5 5 5 4 4 5 6 6 10 14 14 12 12 13 8 3 3 4 4 4 3 3 8 10 11
4 4 3 3 5 6 12 13 10 4 4 4 4 5 6 4 4 5 4 5 5 3 4 5 6 7 8 12 16 12 13 13 8 4 3 4 5 4 3 2 2 5 7
Wind_Direction
221 218 215 217 211 207 208 216 222 226 233 240 242 237 231 225 210 195 194 194 188 185 183 180 177 176 176 174 170 163 157 152 149 147 150 149 145 142 141 139 135 133 130
224 219 214 210 211 208 211 217 222 222 229 231 236 234 226 215 205 194 191 194 193 189 186 185 184 183 183 181 179 174 170 166 163 160 158 158 157 155 153 151 150 148 147
230 220 218 217 215 209 208 215 230 231 237 236 237 233 221 206 195 191 190 191 193 194 190 189 188 188 189 188 187 184 180 177 174 171 169 167 167 166 164 164 166 169 172
239 223 218 223 217 205 200 204 211 226 240 240 236 231 214 198 190 188 189 189 190 193 196 195 192 191 192 193 194 191 186 185 182 180 178 178 177 177 176 179 182 185 192
248 232 225 222 213 203 203 207 195 199 225 242 236 225 204 188 187 188 188 191 192 193 193 197 195 194 194 196 196 196 193 192 190 187 185 185 186 186 187 191 193 199 209
250 237 234 229 213 203 202 199 184 192 204 221 238 224 205 190 186 188 191 191 194 195 194 194 196 199 200 198 199 198 198 196 194 193 192 191 192 193 194 196 200 208 216
254 238 241 233 219 213 206 195 181 189 202 199 183 242 301 235 194 195 192 186 192 194 193 195 196 198 202 204 203 202 201 199 197 197 196 195 194 194 195 197 200 204 208
263 253 239 234 223 218 211 195 184 181 198 185 166 149 211 307 281 219 188 185 188 186 189 197 198 199 198 199 204 204 203 201 200 200 198 195 192 192 193 193 193 195 190
274 256 248 239 228 216 215 205 194 184 193 195 187 168 170 206 232 264 205 184 175 175 186 190 197 202 201 200 202 205 204 200 200 200 197 194 192 190 188 188 190 188 182
287 269 254 242 232 222 218 214 205 195 185 193 195 205 197 169 170 204 242 193 175 174 178 184 193 201 202 201 203 204 202 199 199 198 195 191 189 188 186 188 187 183 179
304 292 269 251 237 226 222 217 209 202 195 195 187 184 197 197 175 160 191 202 202 196 181 183 183 192 201 199 201 204 201 198 197 194 191 189 187 186 186 185 183 181 179
319 320 303 274 252 235 226 219 213 208 205 203 200 192 184 180 189 175 181 193 200 206 191 191 188 185 196 197 199 201 201 198 195 192 189 188 186 186 186 186 186 186 185
327 331 337 322 294 260 237 220 214 214 208 205 205 205 201 195 170 170 177 182 189 196 188 204 205 191 194 194 194 195 199 197 196 193 190 187 186 187 188 189 190 190 190
322 338 350 355 350 346 319 234 216 217 211 209 212 206 203 201 189 182 179 172 180 199 207 208 198 199 193 192 193 189 195 198 197 193 191 188 187 188 189 190 192 195 194
3 14 13 16 12 11 8 8 100 209 202 203 206 206 205 202 195 194 188 184 178 190 209 206 194 196 188 186 185 184 189 197 196 195 192 190 189 189 189 190 189 186 180
19 24 28 26 22 17 11 14 25 41 101 169 190 195 208 206 204 201 199 194 191 184 198 200 195 186 174 177 175 177 185 193 194 195 195 193 189 188 188 187 183 179 176
24 28 26 26 24 19 12 16 16 33 70 84 111 188 208 199 205 207 201 194 192 181 186 185 171 157 156 159 154 156 166 174 185 193 193 192 187 183 184 182 175 168 163
20 24 24 25 22 18 12 14 12 16 35 56 63 77 158 182 200 200 196 195 193 184 176 171 164 154 155 164 153 146 151 164 167 184 188 188 183 176 174 168 160 154 148
20 20 22 19 13 9 9 7 6 10 17 23 43 60 47 110 173 186 186 187 187 181 169 161 161 150 133 144 137 131 126 119 134 145 158 161 155 153 154 152 146 142 137
21 15 13 8 1 358 3 3 2 8 11 21 33 39 51 105 159 174 178 179 173 167 160 154 146 137 129 135 137 135 124 113 110 107 102 104 106 107 114 122 125 127 126
17 7 8 4 358 359 1 359 355 1 5 16 28 33 44 94 136 148 158 160 159 159 158 155 149 140 144 148 150 142 134 122 104 109 106 95 94 89 91 102 113 120 120
356 1 5 1 1 2 0 7 8 6 5 16 30 25 30 43 67 91 132 148 152 157 165 162 159 160 161 153 142 144 141 138 127 125 109 92 88 90 84 96 112 116 117
348 350 352 356 352 345 4 10 16 21 18 21 38 50 57 59 55 54 81 103 121 152 164 162 166 171 164 160 151 152 150 139 125 136 115 95 81 86 84 100 108 112 114
336 337 345 352 350 354 8 13 19 24 29 28 33 48 71 67 61 69 78 79 69 66 136 164 168 168 162 158 154 145 135 115 108 105 98 105 88 79 74 83 102 110 113
329 326 329 349 355 348 4 12 20 12 27 26 28 40 71 82 82 90 87 87 77 59 69 105 122 132 146 147 140 133 135 137 134 116 83 106 120 94 66 50 79 104 115
324 331 353 2 2 352 0 11 18 19 30 31 27 28 44 71 82 94 96 99 91 68 80 90 92 103 122 142 146 149 150 148 140 129 135 116 140 132 108 61 52 97 109
Height
1540 1540 1540 1542 1542 1543 1544 1545 1546 1548 1549 1550 1551 1553 1554 1555 1556 1558 1559 1560 1560 1559 1559 1558 1558 1559 1560 1562 1563 1564 1566 1567 1568 1569 1570 1571 1572 1573 1574 1575 1576 1576 1577
1536 1536 1537 1538 1538 1540 1541 1542 1544 1546 1547 1548 1549 1551 1552 1553 1555 1556 1557 1558 1559 1558 1558 1557 1557 1558 1559 1561 1562 1564 1565 1566 1568 1569 1570 1571 1572 1574 1574 1575 1576 1576 1577
1532 1532 1533 1533 1535 1536 1537 1539 1541 1543 1544 1546 1547 1548 1549 1551 1552 1554 1556 1557 1558 1558 1557 1557 1556 1557 1558 1560 1561 1563 1564 1566 1567 1568 1570 1571 1572 1573 1574 1575 1576 1576 1577
1527 1527 1528 1529 1531 1532 1533 1534 1536 1538 1540 1542 1543 1545 1546 1548 1549 1551 1553 1555 1556 1557 1557 1556 1556 1556 1557 1558 1560 1562 1563 1565 1566 1568 1569 1570 1572 1573 1574 1574 1575 1576 1576
1522 1522 1524 1525 1526 1527 1528 1530 1532 1534 1536 1538 1540 1542 1543 1545 1546 1549 1551 1553 1554 1555 1556 1555 1555 1555 1556 1557 1558 1560 1562 1563 1565 1567 1568 1569 1571 1572 1573 1574 1574 1575 1575
1516 1517 1518 1520 1522 1523 1524 1525 1527 1530 1532 1534 1536 1538 1540 1542 1544 1545 1548 1550 1551 1553 1554 1554 1554 1554 1555 1556 1557 1558 1560 1562 1563 1565 1567 1568 1569 1570 1571 1572 1573 1574 1574
1511 1512 1513 1515 1516 1518 1519 1520 1523 1525 1527 1530 1532 1534 1536 1538 1540 1542 1544 1546 1548 1550 1551 1552 1553 1554 1554 1554 1555 1557 1558 1560 1562 1563 1565 1566 1568 1569 1570 1571 1571 1572 1573
1506 1507 1508 1509 1511 1513 1514 1516 1518 1519 1521 1524 1526 1529 1532 1535 1536 1538 1540 1542 1544 1546 1548 1550 1551 1552 1553 1553 1554 1555 1556 1558 1560 1561 1563 1564 1566 1567 1568 1569 1570 1570 1571
1502 1502 1502 1504 1505 1507 1509 1510 1512 1514 1516 1519 1521 1524 1526 1528 1531 1533 1535 1537 1540 1542 1544 1546 1548 1550 1551 1552 1553 1554 1555 1556 1558 1559 1561 1562 1564 1565 1566 1567 1568 1568 1569
1497 1497 1497 1498 1499 1501 1502 1504 1507 1509 1511 1513 1515 1518 1521 1523 1526 1527 1530 1532 1535 1537 1539 1542 1544 1546 1548 1550 1551 1553 1554 1555 1556 1557 1559 1560 1562 1563 1564 1565 1566 1567 1567
1493 1493 1493 1493 1494 1495 1496 1498 1500 1503 1505 1507 1509 1512 1515 1518 1520 1522 1524 1527 1530 1532 1535 1537 1540 1542 1544 1547 1549 1550 1552 1553 1554 1556 1557 1559 1560 1561 1562 1564 1564 1565 1566
1490 1490 1489 1489 1489 1490 1491 1492 1494 1497 1499 1501 1504 1506 1509 1512 1513 1516 1519 1522 1524 1527 1530 1532 1535 1538 1540 1543 1545 1548 1550 1551 1553 1554 1556 1557 1558 1560 1561 1562 1563 1564 1565
1489 1487 1486 1485 1485 1485 1486 1487 1489 1490 1493 1495 1498 1500 1503 1506 1508 1511 1514 1517 1520 1522 1524 1528 1530 1533 1535 1538 1541 1544 1547 1549 1551 1552 1554 1555 1557 1558 1560 1561 1562 1562 1563
1489 1486 1484 1483 1482 1482 1482 1482 1483 1485 1487 1489 1491 1494 1497 1499 1502 1504 1508 1512 1515 1517 1519 1521 1525 1527 1530 1533 1537 1540 1543 1545 1548 1550 1552 1554 1555 1557 1558 1559 1560 1561 1562
1489 1487 1485 1483 1481 1480 1480 1480 1480 1481 1482 1484 1486 1488 1491 1493 1496 1499 1502 1505 1509 1511 1513 1516 1519 1522 1525 1529 1532 1535 1538 1542 1545 1547 1549 1551 1553 1555 1556 1558 1559 1560 1561
1491 1488 1486 1484 1482 1481 1479 1479 1478 1478 1479 1480 1481 1483 1485 1487 1490 1493 1495 1499 1502 1506 1508 1511 1514 1517 1521 1524 1527 1530 1534 1538 1541 1544 1546 1549 1551 1553 1554 1556 1557 1558 1559
1493 1490 1487 1485 1483 1482 1480 1479 1478 1478 1478 1478 1479 1480 1481 1482 1485 1487 1490 1492 1496 1499 1502 1506 1510 1513 1516 1520 1523 1527 1530 1533 1537 1540 1543 1546 1548 1550 1552 1554 1555 1556 1557
1494 1491 1489 1487 1484 1482 1481 1479 1479 1478 1477 1477 1477 1477 1478 1479 1481 1483 1485 1487 1490 1494 1497 1500 1505 1508 1512 1516 1519 1523 1526 1530 1533 1536 1539 1542 1545 1547 1549 1551 1553 1554 1555
1495 1492 1490 1487 1485 1483 1481 1480 1479 1478 1478 1477 1476 1476 1476 1476 1478 1479 1481 1483 1486 1489 1493 1496 1500 1504 1508 1512 1516 1520 1523 1527 1530 1533 1536 1539 1541 1544 1546 1549 1550 1552 1553
1496 1493 1490 1488 1485 1483 1482 1480 1479 1478 1477 1477 1476 1476 1475 1475 1476 1477 1478 1480 1482 1485 1489 1492 1496 1500 1504 1509 1513 1516 1520 1524 1527 1531 1533 1536 1538 1541 1543 1546 1548 1549 1550
1496 1493 1490 1488 1486 1484 1482 1481 1479 1478 1478 1477 1476 1476 1475 1475 1475 1475 1476 1477 1479 1482 1485 1489 1493 1497 1501 1505 1509 1514 1517 1521 1525 1528 1531 1533 1536 1538 1541 1543 1545 1547 1548
1497 1494 1491 1489 1486 1484 1482 1481 1480 1478 1478 1477 1477 1476 1476 1475 1474 1474 1475 1476 1478 1480 1483 1486 1489 1493 1497 1501 1506 1510 1514 1519 1523 1527 1529 1532 1535 1537 1539 1541 1543 1545 1546
1498 1495 1492 1489 1487 1484 1482 1481 1480 1479 1478 1477 1477 1476 1476 1475 1475 1475 1475 1476 1478 1480 1482 1485 1487 1491 1495 1498 1503 1508 1512 1516 1520 1524 1528 1531 1534 1536 1539 1541 1542 1544 1545
1499 1496 1494 1491 1488 1485 1483 1481 1480 1479 1478 1478 1477 1477 1477 1476 1476 1476 1476 1477 1478 1480 1482 1484 1487 1490 1493 1497 1501 1506 1510 1515 1519 1523 1527 1530 1533 1535 1538 1540 1542 1543 1545
1500 1497 1495 1492 1489 1486 1483 1481 1480 1479 1478 1478 1477 1477 1478 1478 1478 1478 1478 1478 1479 1481 1483 1485 1486 1489 1492 1496 1499 1504 1508 1512 1517 1522 1526 1528 1532 1535 1538 1539 1541 1543 1544
1500 1498 1495 1492 1489 1486 1484 1482 1480 1480 1479 1478 1478 1478 1479 1479 1479 1480 1480 1480 1481 1482 1484 1485 1487 1490 1492 1495 1499 1503 1507 1511 1515 1520 1524 1527 1530 1533 1537 1539 1541 1542 1544